[[{"header":{"parameterUnit":"m.s-1","parameterCategory":2,"la1":30.2991,"la2":30.254,"lo1":-89.0895,"lo2":-89.0444,"dy":0.0017,"dx":0.0017,"nx":28,"ny":28,"refTime":"2026-02-13T09:00:00:Z","depth":"0","parameterNumber":2,"parameterNumberName":"U-component_of_CURRENTS"},"data":[0,0,0,0,0,0,0,0,0,0,0,0,0,0,0,0,0,0,0,0,0,0,0,0,0,0,0,0,0,0,0,0,0,0,0,0,0,0,0,0,0,0,0,0,0,0,0,0,0,0,0,0,0,0,0,0,0,0,0.2357,0.2357,0,0.2366,0.2366,0.2366,0.2349,0.2349,0.2348,0.2348,0.2332,0.2332,0.2332,0,0,0,0,0,0,0,0,0,0,0,0,0,0.2319,0.232,0.2357,0.2357,0.2357,0.2366,0.2366,0.2366,0.2349,0.2349,0.2348,0.2348,0.2332,0.2332,0.2332,0,0,0,0,0,0,0,0,0,0,0,0,0,0.2331,0.232,0.2356,0.2351,0.2351,0.2366,0.2366,0.2366,0.2349,0.2349,0.2348,0.2347,0.2332,0.2332,0.2332,0.2343,0,0,0.2332,0.2331,0,0,0,0,0,0,0,0,0.233,0.2332,0.2352,0.2352,0.2351,0.2358,0.2347,0.2358,0.2349,0.2348,0.2348,0.2347,0.234,0.2339,0.234,0.2342,0.2341,0.2332,0.2331,0.2331,0.2331,0,0,0,0,0,0,0,0.2329,0.2331,0.2358,0.2352,0.2352,0.2347,0.2348,0.2349,0.2345,0.2348,0.2347,0.2352,0.2339,0.234,0.2339,0.2341,0.2332,0.2331,0.2331,0.2331,0.239,0.2392,0,0,0,0,0,0,0.2334,0.2331,0.2358,0.2359,0.2342,0.2349,0.2349,0.2355,0.2345,0.2344,0.2352,0.2351,0.234,0.2339,0.2338,0.2379,0.2331,0.2331,0.2331,0.2388,0.239,0.2392,0,0,0,0,0,0,0.2333,0.2336,0.2358,0.2346,0.2349,0.235,0.2356,0.2355,0.236,0.2349,0.2347,0.2359,0.234,0.2339,0.2352,0.2377,0.2331,0.2331,0.2387,0.2389,0.2391,0.2442,0,0,0,0,0,0,0.2332,0.2335,0.234,0.2347,0.235,0.2376,0.2357,0.2356,0.2365,0.2363,0.2354,0.2352,0.2339,0.2352,0.2352,0.2376,0.2331,0.2384,0.2388,0.239,0.2439,0.2446,0.2453,0,0,0,0,0,0.233,0.2337,0.234,0.2343,0.2356,0.2377,0.2379,0.2375,0.2366,0.2376,0.2371,0.2352,0.2371,0.2353,0.2352,0.2377,0.2383,0.2387,0.239,0.2435,0.2445,0.2452,0,0,0,0,0,0,0.2319,0.2337,0.234,0.2351,0.2369,0.2375,0.2382,0.2382,0.2387,0.2382,0.2368,0.2367,0.239,0.238,0.236,0.2406,0.2376,0.238,0.2411,0.242,0.2427,0.2421,0.2331,0,0,0,0,0,0.2321,0.2332,0.2352,0.2361,0.2372,0.2379,0.2386,0.2388,0.2394,0.2395,0.239,0.2391,0.2405,0.2408,0.2413,0.2434,0.244,0.2453,0.246,0.2466,0.2463,0.2504,0.2514,0.2404,0.2404,0.2404,0,0,0.2317,0.233,0.2335,0.236,0.237,0.2391,0.2381,0.2398,0.2415,0.2393,0.2409,0.2414,0.2417,0.2443,0.2453,0.2436,0.2504,0.247,0.2475,0.2469,0.2509,0.2519,0.2529,0.2407,0.2406,0.2406,0,0,0.2321,0.2331,0.2345,0.2365,0.239,0.24,0.2409,0.2425,0.2432,0.2453,0.2448,0.2469,0.2478,0.2491,0.2498,0.2549,0.2541,0.2555,0.2583,0.2623,0.2632,0.264,0.2675,0.2685,0.2557,0.2557,0.2557,0,0.2315,0.2335,0.2353,0.2377,0.2391,0.2407,0.2427,0.2445,0.2462,0.2475,0.2464,0.2504,0.2502,0.2547,0.2563,0.2564,0.2583,0.2548,0.2632,0.264,0.2647,0.268,0.2691,0.256,0.2559,0.2559,0.2559,0,0.2334,0.2351,0.2362,0.2397,0.2419,0.2437,0.2469,0.249,0.2499,0.2515,0.2558,0.2566,0.2588,0.2601,0.2593,0.2652,0.2649,0.2637,0.2607,0.2661,0.2693,0.2704,0.2564,0.2563,0.2562,0.2561,0,0,0.2309,0.2363,0.2365,0.2383,0.2428,0.2446,0.2487,0.2527,0.2555,0.258,0.2618,0.2649,0.2655,0.2664,0.267,0.2703,0.2773,0.2692,0.2692,0.2721,0.2866,0.2887,0.29,0.2778,0.278,0.2781,0.2872,0,0.2313,0.2354,0.2381,0.2415,0.2438,0.2473,0.2512,0.2554,0.2585,0.2628,0.266,0.2696,0.2682,0.2699,0.2732,0.2765,0.2802,0.275,0.2814,0.2815,0.2823,0.2913,0.2891,0.2973,0.2882,0.2884,0.2885,0,0.2315,0.2344,0.2376,0.2428,0.2442,0.2467,0.2526,0.2564,0.2637,0.2666,0.2713,0.2737,0.2798,0.2772,0.2857,0.2827,0.2849,0.2869,0.2873,0.2878,0.2856,0.2903,0.2995,0.2983,0.2901,0.29,0.2899,0,0.2281,0.2333,0.2355,0.2373,0.244,0.2462,0.2499,0.257,0.2606,0.2692,0.2731,0.2799,0.2843,0.2884,0.2931,0.29,0.3026,0.2985,0.3025,0.3026,0.3012,0.3009,0.3093,0.3045,0.3044,0.3044,0.3044,0,0.2269,0.2281,0.2339,0.2352,0.2379,0.2442,0.2479,0.2534,0.2616,0.2667,0.2743,0.2802,0.2874,0.2949,0.2969,0.305,0.3062,0.3053,0.3063,0.3032,0.303,0.3019,0.2994,0.3048,0.3047,0.3046,0.3046,0,0.222,0.226,0.228,0.2344,0.236,0.2378,0.2448,0.2487,0.258,0.2651,0.2684,0.2821,0.294,0.3015,0.3106,0.3111,0.3119,0.3191,0.3152,0.3156,0.316,0.3138,0.3039,0.2943,0.3247,0.3248,0.3249,0,0.2198,0.2207,0.225,0.2261,0.2282,0.2319,0.2352,0.2447,0.2497,0.2657,0.2698,0.2852,0.296,0.3133,0.3199,0.3282,0.3173,0.328,0.321,0.3186,0.3169,0.298,0.289,0.3215,0.3215,0.3216,0.3216,0,0.2152,0.2162,0.2182,0.2201,0.2224,0.2245,0.2305,0.2335,0.2463,0.2553,0.2692,0.28,0.3019,0.3137,0.3276,0.3306,0.317,0.3292,0.3283,0.3175,0.2959,0.2863,0.3122,0.3221,0.3221,0.322,0.322,0.322,0.2106,0.2099,0.2125,0.2131,0.2155,0.2168,0.2162,0.2253,0.2326,0.2449,0.2614,0.277,0.3048,0.3264,0.3269,0.3338,0.3206,0.3295,0.3279,0.3094,0.2972,0.3246,0.3343,0.3343,0.3344,0.3344,0.3344,0,0.2047,0.205,0.2059,0.2059,0.2049,0.2087,0.2127,0.2122,0.2179,0.2364,0.2492,0.2814,0.3024,0.3211,0.3415,0.3355,0.3142,0.3298,0.3046,0.2962,0.326,0.3234,0.3295,0.3295,0.3295,0.3295,0.3295,0.3295,0.202,0.2,0.1999,0.1951,0.195,0.1907,0.1904,0.1928,0.2034,0.221,0.2399,0.2593,0.3035,0.3424,0.3502,0.3409,0.3136,0.3039,0.295,0.3235,0.3232,0.3229,0.3201,0.3254,0.3254,0.2538,0.2533,0.253]},{"header":{"parameterUnit":"m.s-1","parameterCategory":2,"la1":30.2991,"la2":30.254,"lo1":-89.0895,"lo2":-89.0444,"dy":0.0017,"dx":0.0017,"nx":28,"ny":28,"refTime":"2026-02-13T09:00:00:Z","depth":"0","parameterNumber":3,"parameterNumberName":"V-component_of_CURRENTS"},"data":[0,0,0,0,0,0,0,0,0,0,0,0,0,0,0,0,0,0,0,0,0,0,0,0,0,0,0,0,0,0,0,0,0,0,0,0,0,0,0,0,0,0,0,0,0,0,0,0,0,0,0,0,0,0,0,0,0,0,0.007,0.0069,0,-0.0015,-0.0016,-0.0017,-0.0063,-0.0063,-0.0063,-0.0063,-0.0175,-0.0178,-0.0181,0,0,0,0,0,0,0,0,0,0,0,0,0,0.0153,0.0152,0.0071,0.0069,0.0068,-0.0015,-0.0016,-0.0017,-0.0063,-0.0063,-0.0063,-0.0064,-0.0174,-0.0177,-0.0181,0,0,0,0,0,0,0,0,0,0,0,0,0,0.0098,0.0151,0.0071,0.0035,0.0031,-0.0015,-0.0016,-0.0018,-0.0063,-0.0063,-0.0063,-0.0064,-0.0173,-0.0177,-0.0181,-0.0203,0,0,-0.0194,-0.0196,0,0,0,0,0,0,0,0,0.0101,0.0095,0.0041,0.0037,0.0033,-0.0029,-0.0028,-0.0081,-0.0063,-0.0027,-0.0063,-0.0064,-0.0129,-0.0137,-0.0151,-0.0208,-0.0213,-0.0195,-0.0197,-0.0199,-0.02,0,0,0,0,0,0,0,0.0105,0.0098,0.0037,0.004,0.0035,0.0009,0.0001,-0.0039,-0.0075,-0.003,-0.0034,-0.0044,-0.0131,-0.0147,-0.0154,-0.0215,-0.0194,-0.0198,-0.0201,-0.0203,-0.0291,-0.0291,0,0,0,0,0,0,0.0116,0.0102,0.004,0.0034,0.0066,0.0008,-0.0001,-0.0009,-0.0075,-0.0085,-0.0044,-0.0046,-0.014,-0.0149,-0.0158,-0.0175,-0.0199,-0.0203,-0.0205,-0.0291,-0.0291,-0.0291,0,0,0,0,0,0,0.0119,0.0112,0.0043,0.0065,0.0055,0.0007,-0.0002,-0.001,-0.0024,-0.0085,-0.0096,-0.0049,-0.014,-0.0152,-0.0187,-0.018,-0.0205,-0.0209,-0.0292,-0.0291,-0.0291,-0.0216,0,0,0,0,0,0,0.0121,0.0113,0.0113,0.0066,0.0054,0.0024,-0.0002,-0.0012,-0.0031,-0.0034,-0.0093,-0.0104,-0.0141,-0.018,-0.0191,-0.0186,-0.0212,-0.0292,-0.0291,-0.0291,-0.0219,-0.0214,-0.0209,0,0,0,0,0,0.0125,0.0127,0.0114,0.0106,0.0055,0.0024,0.0016,-0.0019,-0.003,-0.0033,-0.0071,-0.0102,-0.0185,-0.0183,-0.0196,-0.0192,-0.0292,-0.0292,-0.0291,-0.0221,-0.0215,-0.0209,0,0,0,0,0,0,0.0162,0.0121,0.0106,0.0095,0.0066,0.0017,0.001,-0.0013,-0.0045,-0.0047,-0.0101,-0.0115,-0.0143,-0.0178,-0.0174,-0.0217,-0.0243,-0.0245,-0.0186,-0.018,-0.0175,-0.0155,-0.0216,0,0,0,0,0,0.0171,0.0163,0.0119,0.0112,0.01,0.0058,0.0041,0.0019,-0.0017,-0.0032,-0.0072,-0.0115,-0.0152,-0.0173,-0.0212,-0.0236,-0.0267,-0.0242,-0.0237,-0.0232,-0.0225,-0.0261,-0.0258,-0.029,-0.029,-0.029,0,0,0.0183,0.016,0.0155,0.012,0.0095,0.0086,0.0048,0.0029,0.0023,-0.0039,-0.0057,-0.01,-0.0154,-0.018,-0.0195,-0.0208,-0.024,-0.0231,-0.0227,-0.0222,-0.026,-0.0257,-0.0255,-0.0289,-0.0289,-0.0289,0,0,0.0206,0.0184,0.0187,0.0168,0.0135,0.0109,0.0108,0.0065,0.0048,0.0022,-0.0021,-0.0055,-0.0114,-0.0147,-0.0173,-0.0164,-0.0211,-0.0179,-0.0138,-0.0173,-0.0171,-0.0169,-0.0201,-0.0202,-0.0176,-0.0176,-0.0176,0,0.0224,0.022,0.0184,0.0182,0.0174,0.0126,0.0132,0.0107,0.0059,0.0049,0.0028,-0.005,-0.0096,-0.0126,-0.0123,-0.0151,-0.0179,-0.0154,-0.0165,-0.0164,-0.0163,-0.0197,-0.02,-0.0172,-0.0173,-0.0173,-0.0173,0,0.0248,0.0246,0.0248,0.0233,0.022,0.0217,0.018,0.0168,0.0142,0.0112,0.0078,0.0015,-0.0028,-0.0051,-0.0086,-0.0104,-0.0128,-0.0153,-0.0176,-0.0155,-0.0192,-0.0197,-0.0167,-0.0168,-0.0169,-0.017,0,0,0.0288,0.027,0.0272,0.028,0.0249,0.0245,0.0239,0.022,0.0224,0.017,0.0166,0.0097,0.0062,0.0031,-0.002,-0.0054,-0.0076,-0.0095,-0.0099,-0.0118,-0.0152,-0.0156,-0.0162,-0.0103,-0.0104,-0.0104,-0.0178,0,0.0321,0.0338,0.0317,0.034,0.0348,0.0313,0.0315,0.0293,0.0264,0.0247,0.0181,0.0154,0.0093,0.0076,0.0032,-0.0047,-0.0084,-0.0053,-0.0177,-0.0181,-0.0179,-0.0166,-0.0137,-0.02,-0.0183,-0.0184,-0.0184,0,0.0354,0.0363,0.039,0.0401,0.0403,0.0407,0.041,0.0406,0.0367,0.0343,0.0299,0.0247,0.019,0.0137,0.0015,0.0037,-0.0049,-0.0115,-0.012,-0.0151,-0.0192,-0.022,-0.0209,-0.0359,-0.0191,-0.0191,-0.019,0,0.0406,0.0418,0.0446,0.0447,0.0447,0.0456,0.0457,0.0434,0.0447,0.0404,0.0405,0.032,0.0289,0.0172,0.0041,0.0026,-0.0091,-0.0133,-0.022,-0.0222,-0.0235,-0.0237,-0.0375,-0.0219,-0.0219,-0.0219,-0.0219,0,0.045,0.0476,0.0472,0.0488,0.0529,0.051,0.0545,0.0531,0.0526,0.0552,0.046,0.0465,0.0297,0.0213,0.0073,-0.0074,-0.0069,-0.0207,-0.0238,-0.0209,-0.0207,-0.0369,-0.0471,-0.0222,-0.0221,-0.0221,-0.022,0,0.0498,0.0496,0.0531,0.0543,0.0553,0.0581,0.061,0.064,0.062,0.0651,0.0647,0.0578,0.0471,0.0301,0.0119,-0.0018,-0.0269,-0.0226,-0.0175,-0.0199,-0.0423,-0.052,-0.073,-0.0835,-0.0338,-0.0338,-0.0339,0,0.0523,0.0544,0.0574,0.0603,0.0609,0.0646,0.068,0.0683,0.0721,0.0729,0.076,0.0679,0.0648,0.0383,0.0131,-0.0108,-0.0285,-0.0257,-0.0286,-0.0425,-0.0558,-0.065,-0.0731,-0.028,-0.028,-0.028,-0.028,0,0.0572,0.0578,0.0607,0.0664,0.0705,0.0757,0.0806,0.0856,0.0873,0.0912,0.0959,0.0944,0.0703,0.05,0.0167,-0.0021,-0.0382,-0.0263,-0.0426,-0.0535,-0.0628,-0.0746,-0.0244,-0.0279,-0.0279,-0.0279,-0.0279,-0.0279,0.0609,0.0636,0.0672,0.0729,0.0783,0.0861,0.0919,0.0993,0.1081,0.1168,0.1138,0.1179,0.0862,0.0428,0.0127,-0.0354,-0.0402,-0.049,-0.0599,-0.0681,-0.0777,-0.0267,-0.0325,-0.0326,-0.0326,-0.0326,-0.0326,0,0.0652,0.0683,0.0738,0.0807,0.0877,0.0895,0.1003,0.1079,0.1205,0.1328,0.1389,0.1339,0.09,0.0447,-0.019,-0.0578,-0.0778,-0.0809,-0.0935,-0.1007,-0.0555,-0.0543,-0.0629,-0.0629,-0.0629,-0.0629,-0.0629,-0.0628,0.0678,0.0734,0.0759,0.0874,0.0928,0.1031,0.11,0.1228,0.1351,0.1553,0.1672,0.1736,0.1482,0.0186,-0.0661,-0.0886,-0.1212,-0.1291,-0.147,-0.1145,-0.1123,-0.1103,-0.1114,-0.1318,-0.1319,-0.1869,-0.1874,-0.1878]}],[{"header":{"parameterUnit":"m.s-1","parameterCategory":2,"la1":30.2991,"la2":30.254,"lo1":-89.0895,"lo2":-89.0444,"dy":0.0017,"dx":0.0017,"nx":28,"ny":28,"refTime":"2026-02-13T09:00:00:Z","depth":"2","parameterNumber":2,"parameterNumberName":"U-component_of_CURRENTS"},"data":[0,0,0,0,0,0,0,0,0,0,0,0,0,0,0,0,0,0,0,0,0,0,0,0,0,0,0,0,0,0,0,0,0,0,0,0,0,0,0,0,0,0,0,0,0,0,0,0,0,0,0,0,0,0,0,0,0,0,0.2356,0.2356,0,0.2366,0.2366,0.2366,0.235,0.235,0.2349,0.2349,0.2335,0.2335,0.2335,0,0,0,0,0,0,0,0,0,0,0,0,0,0.2318,0.2319,0.2356,0.2356,0.2356,0.2366,0.2366,0.2366,0.235,0.235,0.2349,0.2349,0.2335,0.2335,0.2335,0,0,0,0,0,0,0,0,0,0,0,0,0,0.233,0.2319,0.2356,0.2351,0.2351,0.2366,0.2366,0.2366,0.235,0.235,0.2349,0.2349,0.2335,0.2335,0.2335,0.2346,0,0,0.2335,0.2335,0,0,0,0,0,0,0,0,0.233,0.2331,0.2352,0.2352,0.2351,0.2358,0.2348,0.2359,0.235,0.2348,0.2349,0.2348,0.2343,0.2342,0.2342,0.2345,0.2344,0.2335,0.2335,0.2335,0.2335,0,0,0,0,0,0,0,0.2329,0.2331,0.2358,0.2352,0.2352,0.2348,0.2349,0.235,0.2346,0.2348,0.2348,0.2353,0.2342,0.2342,0.2342,0.2344,0.2335,0.2335,0.2335,0.2335,0.2393,0.2395,0,0,0,0,0,0,0.2333,0.233,0.2357,0.2358,0.2341,0.2349,0.235,0.2355,0.2347,0.2346,0.2353,0.2352,0.2343,0.2342,0.2341,0.2382,0.2335,0.2335,0.2335,0.2392,0.2394,0.2396,0,0,0,0,0,0,0.2332,0.2335,0.2357,0.2346,0.2349,0.235,0.2356,0.2355,0.2361,0.2351,0.2349,0.236,0.2342,0.2341,0.2355,0.238,0.2335,0.2335,0.239,0.2392,0.2395,0.2445,0,0,0,0,0,0,0.2331,0.2335,0.2339,0.2346,0.235,0.2375,0.2357,0.2356,0.2365,0.2364,0.2356,0.2354,0.2342,0.2355,0.2355,0.2379,0.2335,0.2388,0.2391,0.2394,0.2441,0.2449,0.2455,0,0,0,0,0,0.233,0.2337,0.2339,0.2343,0.2356,0.2377,0.2378,0.2375,0.2366,0.2376,0.2373,0.2354,0.2374,0.2356,0.2356,0.2381,0.2387,0.239,0.2394,0.2438,0.2447,0.2455,0,0,0,0,0,0,0.2319,0.2336,0.2339,0.235,0.2368,0.2375,0.2381,0.2382,0.2387,0.2383,0.237,0.2369,0.2392,0.2383,0.2363,0.2409,0.238,0.2383,0.2414,0.2422,0.2429,0.2424,0.2335,0,0,0,0,0,0.2321,0.2332,0.2351,0.2361,0.2371,0.2379,0.2386,0.2388,0.2394,0.2395,0.2391,0.2393,0.2407,0.241,0.2416,0.2437,0.2442,0.2455,0.2462,0.2468,0.2465,0.2505,0.2515,0.2407,0.2407,0.2407,0,0,0.2317,0.233,0.2335,0.236,0.237,0.239,0.2381,0.2398,0.2415,0.2394,0.241,0.2416,0.2419,0.2445,0.2455,0.2438,0.2505,0.2472,0.2477,0.2471,0.2509,0.252,0.2529,0.241,0.2409,0.2409,0,0,0.2321,0.2332,0.2345,0.2365,0.239,0.2399,0.2409,0.2424,0.2432,0.2453,0.2449,0.2469,0.2479,0.2492,0.2499,0.2549,0.2542,0.2555,0.2583,0.2622,0.2631,0.2639,0.2672,0.2682,0.2557,0.2557,0.2557,0,0.2316,0.2335,0.2353,0.2376,0.239,0.2407,0.2426,0.2444,0.2461,0.2475,0.2464,0.2504,0.2503,0.2546,0.2563,0.2564,0.2582,0.2549,0.263,0.2638,0.2645,0.2677,0.2688,0.256,0.256,0.2559,0.2559,0,0.2335,0.2351,0.2362,0.2396,0.2418,0.2436,0.2467,0.2488,0.2498,0.2514,0.2556,0.2565,0.2587,0.26,0.2593,0.2651,0.2648,0.2635,0.2606,0.2659,0.269,0.27,0.2564,0.2563,0.2562,0.2562,0,0,0.2311,0.2363,0.2365,0.2383,0.2427,0.2444,0.2485,0.2524,0.2551,0.2577,0.2615,0.2646,0.2652,0.2661,0.2668,0.27,0.2769,0.2689,0.269,0.2717,0.2859,0.2874,0.2886,0.2774,0.2776,0.2777,0.2864,0,0.2315,0.2354,0.2381,0.2414,0.2436,0.2471,0.2509,0.255,0.258,0.2623,0.2655,0.2692,0.2678,0.2696,0.2728,0.276,0.2796,0.2746,0.2807,0.2809,0.2812,0.2899,0.265,0.2709,0.2874,0.2876,0.2877,0,0.2315,0.2344,0.2375,0.2427,0.244,0.2464,0.2523,0.256,0.2632,0.266,0.2707,0.2731,0.2791,0.2767,0.285,0.2821,0.2842,0.2862,0.2866,0.2865,0.2844,0.2681,0.2721,0.2894,0.2892,0.2891,0.289,0,0.2282,0.2333,0.2355,0.2372,0.2438,0.246,0.2497,0.2566,0.2602,0.2686,0.2725,0.2792,0.2835,0.2876,0.2922,0.2892,0.3013,0.2975,0.3009,0.3009,0.2802,0.2782,0.3032,0.3032,0.3032,0.3032,0.3031,0,0.227,0.2282,0.2339,0.2351,0.2379,0.2441,0.2477,0.2531,0.2612,0.2662,0.2737,0.2794,0.2865,0.2939,0.2958,0.3034,0.3048,0.3035,0.3044,0.2816,0.2798,0.295,0.2939,0.3035,0.3034,0.3034,0.3033,0,0.2222,0.2261,0.2281,0.2344,0.236,0.2378,0.2447,0.2486,0.2577,0.2647,0.268,0.2814,0.2928,0.3001,0.3089,0.3092,0.315,0.3166,0.2902,0.288,0.3105,0.3096,0.3212,0.3214,0.3215,0.3216,0.3217,0,0.22,0.2209,0.2252,0.2262,0.2284,0.2321,0.2353,0.2447,0.2496,0.2652,0.2692,0.2841,0.2941,0.3106,0.313,0.3199,0.3218,0.3009,0.291,0.3132,0.3129,0.3118,0.3107,0.2647,0.2644,0.264,0.2638,0,0.2155,0.2165,0.2185,0.2204,0.2227,0.2247,0.2307,0.2336,0.2461,0.2545,0.2679,0.2778,0.2954,0.2942,0.3057,0.3047,0.2981,0.2952,0.325,0.2662,0.2613,0.2606,0.2611,0.261,0.2613,0.2615,0.2616,0.2617,0.2109,0.2103,0.2129,0.2135,0.2159,0.2171,0.2165,0.2244,0.231,0.2399,0.2565,0.2639,0.2733,0.28,0.2755,0.272,0.2924,0.2782,0.2785,0.2793,0.2734,0.2693,0.2692,0.2695,0.2698,0.27,0.2703,0,0.2045,0.2055,0.2064,0.2064,0.2048,0.2092,0.213,0.2107,0.2143,0.226,0.2352,0.2262,0.2305,0.2386,0.2308,0.2365,0.226,0.226,0.2082,0.2116,0.2145,0.2044,0.1823,0.182,0.1817,0.1814,0,0,0.2018,0.1995,0.1994,0.1944,0.1948,0.1898,0.1894,0.1887,0.1937,0.1944,0.1972,0.216,0.2325,0.2022,0.2024,0.1904,0.197,0.1827,0.2543,0.2367,0.239,0.2478,0.2369,0,0,0,0,0]},{"header":{"parameterUnit":"m.s-1","parameterCategory":2,"la1":30.2991,"la2":30.254,"lo1":-89.0895,"lo2":-89.0444,"dy":0.0017,"dx":0.0017,"nx":28,"ny":28,"refTime":"2026-02-13T09:00:00:Z","depth":"2","parameterNumber":3,"parameterNumberName":"V-component_of_CURRENTS"},"data":[0,0,0,0,0,0,0,0,0,0,0,0,0,0,0,0,0,0,0,0,0,0,0,0,0,0,0,0,0,0,0,0,0,0,0,0,0,0,0,0,0,0,0,0,0,0,0,0,0,0,0,0,0,0,0,0,0,0,0.0008,0.0007,0,-0.0076,-0.0077,-0.0077,-0.0122,-0.0122,-0.0122,-0.0122,-0.0231,-0.0234,-0.0237,0,0,0,0,0,0,0,0,0,0,0,0,0,0.0089,0.0088,0.0009,0.0007,0.0006,-0.0075,-0.0077,-0.0078,-0.0122,-0.0122,-0.0122,-0.0122,-0.023,-0.0234,-0.0237,0,0,0,0,0,0,0,0,0,0,0,0,0,0.0035,0.0087,0.0009,-0.0026,-0.003,-0.0075,-0.0077,-0.0078,-0.0122,-0.0122,-0.0122,-0.0122,-0.0229,-0.0233,-0.0238,-0.026,0,0,-0.025,-0.0252,0,0,0,0,0,0,0,0,0.0038,0.0032,-0.002,-0.0023,-0.0028,-0.0089,-0.0089,-0.014,-0.0122,-0.0086,-0.0122,-0.0122,-0.0186,-0.0194,-0.0208,-0.0265,-0.027,-0.0251,-0.0253,-0.0255,-0.0256,0,0,0,0,0,0,0,0.0042,0.0035,-0.0024,-0.0021,-0.0026,-0.0052,-0.0059,-0.0099,-0.0134,-0.0089,-0.0093,-0.0103,-0.0189,-0.0204,-0.0211,-0.0272,-0.0251,-0.0254,-0.0257,-0.0259,-0.0347,-0.0347,0,0,0,0,0,0,0.0053,0.0039,-0.0022,-0.0027,0.0005,-0.0053,-0.0061,-0.0069,-0.0134,-0.0143,-0.0103,-0.0105,-0.0197,-0.0206,-0.0215,-0.0231,-0.0255,-0.0259,-0.0262,-0.0347,-0.0347,-0.0347,0,0,0,0,0,0,0.0056,0.0049,-0.0018,0.0003,-0.0007,-0.0054,-0.0062,-0.007,-0.0083,-0.0143,-0.0154,-0.0107,-0.0197,-0.0209,-0.0243,-0.0236,-0.0261,-0.0265,-0.0347,-0.0347,-0.0347,-0.0273,0,0,0,0,0,0,0.0058,0.005,0.0051,0.0004,-0.0008,-0.0037,-0.0062,-0.0072,-0.009,-0.0093,-0.0151,-0.0161,-0.0198,-0.0236,-0.0247,-0.0243,-0.0268,-0.0348,-0.0347,-0.0347,-0.0275,-0.027,-0.0265,0,0,0,0,0,0.0062,0.0064,0.0051,0.0044,-0.0006,-0.0037,-0.0045,-0.0079,-0.009,-0.0092,-0.0129,-0.0159,-0.0242,-0.024,-0.0252,-0.0249,-0.0348,-0.0347,-0.0347,-0.0278,-0.0271,-0.0266,0,0,0,0,0,0,0.0098,0.0058,0.0044,0.0033,0.0004,-0.0044,-0.0051,-0.0073,-0.0104,-0.0106,-0.0159,-0.0172,-0.02,-0.0235,-0.0231,-0.0274,-0.0299,-0.0301,-0.0242,-0.0237,-0.0232,-0.0212,-0.0272,0,0,0,0,0,0.0107,0.01,0.0057,0.005,0.0039,-0.0004,-0.002,-0.0041,-0.0077,-0.009,-0.0131,-0.0172,-0.0209,-0.0229,-0.0268,-0.0292,-0.0322,-0.0298,-0.0293,-0.0288,-0.0281,-0.0317,-0.0315,-0.0345,-0.0345,-0.0345,0,0,0.0119,0.0097,0.0092,0.0058,0.0033,0.0024,-0.0013,-0.0031,-0.0037,-0.0098,-0.0116,-0.0158,-0.0212,-0.0237,-0.0252,-0.0264,-0.0296,-0.0288,-0.0283,-0.0279,-0.0317,-0.0314,-0.0311,-0.0345,-0.0345,-0.0345,0,0,0.0143,0.0122,0.0125,0.0105,0.0074,0.0048,0.0047,0.0004,-0.0012,-0.0037,-0.008,-0.0113,-0.0171,-0.0205,-0.023,-0.0221,-0.0268,-0.0237,-0.0195,-0.023,-0.0228,-0.0226,-0.0257,-0.0259,-0.0233,-0.0233,-0.0233,0,0.0161,0.0157,0.0121,0.012,0.0112,0.0065,0.0071,0.0045,-0.0002,-0.0011,-0.0031,-0.0109,-0.0154,-0.0184,-0.0181,-0.0209,-0.0236,-0.0211,-0.0222,-0.0221,-0.0221,-0.0253,-0.0256,-0.023,-0.023,-0.023,-0.0231,0,0.0185,0.0184,0.0185,0.0171,0.0158,0.0155,0.0118,0.0106,0.0081,0.0051,0.0018,-0.0044,-0.0087,-0.0109,-0.0144,-0.0162,-0.0185,-0.021,-0.0233,-0.0213,-0.0249,-0.0253,-0.0224,-0.0226,-0.0227,-0.0228,0,0,0.0226,0.0207,0.0209,0.0217,0.0187,0.0182,0.0176,0.0157,0.0161,0.0108,0.0105,0.0036,0.0002,-0.0029,-0.0079,-0.0112,-0.0134,-0.0153,-0.0157,-0.0175,-0.0209,-0.0213,-0.0219,-0.0161,-0.0161,-0.0162,-0.0234,0,0.0259,0.0275,0.0254,0.0277,0.0284,0.025,0.0251,0.0229,0.02,0.0184,0.0118,0.0092,0.0032,0.0016,-0.0027,-0.0105,-0.0142,-0.0112,-0.0234,-0.0237,-0.0236,-0.0222,-0.0213,-0.0276,-0.0238,-0.0239,-0.0239,0,0.0292,0.03,0.0326,0.0337,0.0339,0.0342,0.0345,0.0341,0.0302,0.0278,0.0235,0.0184,0.0128,0.0076,-0.0044,-0.0022,-0.0106,-0.0171,-0.0176,-0.0208,-0.0249,-0.0292,-0.0285,-0.0247,-0.0246,-0.0245,-0.0245,0,0.0344,0.0355,0.0382,0.0383,0.0382,0.0392,0.0392,0.0369,0.0382,0.0339,0.0341,0.0256,0.0226,0.0111,-0.0018,-0.0033,-0.0149,-0.0189,-0.0275,-0.0277,-0.0306,-0.0309,-0.0274,-0.0274,-0.0274,-0.0274,-0.0273,0,0.0388,0.0413,0.0408,0.0425,0.0465,0.0445,0.048,0.0466,0.0461,0.0486,0.0395,0.04,0.0234,0.0151,0.0014,-0.0132,-0.0127,-0.0262,-0.0293,-0.028,-0.028,-0.0287,-0.0287,-0.0276,-0.0276,-0.0275,-0.0275,0,0.0436,0.0434,0.0468,0.0479,0.0489,0.0517,0.0545,0.0574,0.0554,0.0585,0.0581,0.0511,0.0405,0.0237,0.0058,-0.0076,-0.0224,-0.0281,-0.025,-0.0275,-0.0341,-0.0337,-0.0389,-0.039,-0.039,-0.0391,-0.0391,0,0.0461,0.0482,0.0511,0.054,0.0546,0.0582,0.0616,0.0618,0.0655,0.0661,0.069,0.061,0.0574,0.0312,0.0059,-0.0177,-0.021,-0.0331,-0.0362,-0.0326,-0.0352,-0.0347,-0.0342,-0.0378,-0.0378,-0.0378,-0.0379,0,0.051,0.0516,0.0544,0.0601,0.0642,0.0692,0.074,0.0788,0.0803,0.0837,0.088,0.0862,0.0617,0.0392,0.0062,-0.011,-0.0294,-0.0343,-0.0318,-0.0341,-0.032,-0.0343,-0.0339,-0.0381,-0.038,-0.038,-0.038,-0.038,0.0547,0.0573,0.0609,0.0666,0.0719,0.0795,0.0851,0.0906,0.0986,0.1029,0.1019,0.0979,0.0724,0.0307,0.0023,-0.0298,-0.0289,-0.0411,-0.041,-0.0408,-0.0384,-0.0364,-0.0429,-0.043,-0.043,-0.043,-0.043,0,0.0581,0.062,0.0674,0.0742,0.08,0.083,0.0934,0.097,0.1066,0.111,0.1135,0.0893,0.0653,0.0353,-0.0115,-0.038,-0.0416,-0.0472,-0.0454,-0.045,-0.0447,-0.0425,-0.0482,-0.0482,-0.0483,-0.0484,0,0,0.0605,0.0656,0.0679,0.0786,0.0848,0.0925,0.0991,0.1051,0.1091,0.1119,0.1107,0.1073,0.0741,0.0401,0.004,-0.0221,-0.0284,-0.0286,-0.0219,-0.0153,-0.0147,-0.039,-0.0348,0,0,0,0,0]}],[{"header":{"parameterUnit":"m.s-1","parameterCategory":2,"la1":30.2991,"la2":30.254,"lo1":-89.0895,"lo2":-89.0444,"dy":0.0017,"dx":0.0017,"nx":28,"ny":28,"refTime":"2026-02-13T09:00:00:Z","depth":"4","parameterNumber":2,"parameterNumberName":"U-component_of_CURRENTS"},"data":[0,0,0,0,0,0,0,0,0,0,0,0,0,0,0,0,0,0,0,0,0,0,0,0,0,0,0,0,0,0,0,0,0,0,0,0,0,0,0,0,0,0,0,0,0,0,0,0,0,0,0,0,0,0,0,0,0,0,0.1569,0.157,0,0.1619,0.1619,0.1619,0.1657,0.1657,0.1658,0.1658,0.1716,0.1717,0.1718,0,0,0,0,0,0,0,0,0,0,0,0,0,0.1493,0.1494,0.1569,0.157,0.157,0.1619,0.1619,0.1619,0.1657,0.1657,0.1658,0.1659,0.1716,0.1717,0.1718,0,0,0,0,0,0,0,0,0,0,0,0,0,0.1531,0.1495,0.1569,0.1597,0.16,0.1618,0.1619,0.162,0.1657,0.1657,0.1658,0.1659,0.1715,0.1717,0.1718,0.1711,0,0,0.1723,0.1724,0,0,0,0,0,0,0,0,0.1529,0.1533,0.1592,0.1595,0.1598,0.1634,0.1614,0.1651,0.1656,0.1633,0.1658,0.1659,0.169,0.1694,0.1698,0.1714,0.1716,0.1723,0.1724,0.1725,0.1725,0,0,0,0,0,0,0,0.1526,0.1531,0.1586,0.1592,0.1597,0.1602,0.1608,0.1621,0.1655,0.1635,0.1638,0.1647,0.1692,0.1696,0.17,0.1717,0.1723,0.1724,0.1725,0.1726,0.1832,0.1834,0,0,0,0,0,0,0.1524,0.1529,0.1585,0.1588,0.1567,0.1603,0.161,0.162,0.1654,0.1661,0.1646,0.1649,0.1693,0.1698,0.1702,0.1788,0.1725,0.1726,0.1727,0.183,0.1833,0.1835,0,0,0,0,0,0,0.1522,0.1529,0.1583,0.1561,0.1569,0.1604,0.1615,0.1621,0.1658,0.1664,0.167,0.1682,0.1694,0.17,0.1746,0.1787,0.1727,0.1728,0.1828,0.1831,0.1834,0.19,0,0,0,0,0,0,0.152,0.1528,0.155,0.1561,0.157,0.1616,0.1615,0.1621,0.1661,0.1666,0.1695,0.17,0.1695,0.1744,0.1748,0.1788,0.1729,0.1826,0.1829,0.1833,0.1895,0.1904,0.1912,0,0,0,0,0,0.1517,0.1538,0.155,0.1558,0.1594,0.1617,0.1623,0.1648,0.1663,0.1684,0.171,0.1701,0.1769,0.1747,0.1751,0.1792,0.1824,0.1828,0.1832,0.1891,0.1903,0.1912,0,0,0,0,0,0,0.1519,0.1544,0.1558,0.1587,0.1612,0.1625,0.1653,0.1667,0.1703,0.1718,0.1721,0.1727,0.1783,0.1779,0.1754,0.1834,0.1797,0.1802,0.184,0.1851,0.186,0.1854,0.1731,0,0,0,0,0,0.1529,0.1554,0.1575,0.1603,0.1619,0.1642,0.1662,0.1679,0.1704,0.1723,0.1744,0.1771,0.1798,0.1819,0.1837,0.1879,0.1878,0.191,0.1919,0.1926,0.1925,0.1963,0.1975,0.1849,0.1849,0.1849,0,0,0.1538,0.1557,0.1572,0.1607,0.1629,0.1655,0.1657,0.1696,0.1727,0.1722,0.1783,0.1803,0.1816,0.1865,0.189,0.1871,0.1965,0.1931,0.1937,0.1933,0.1969,0.1981,0.1992,0.1852,0.1851,0.1851,0,0,0.1556,0.1588,0.1611,0.1634,0.1676,0.1689,0.1708,0.1741,0.1771,0.182,0.1831,0.1876,0.1916,0.1935,0.1948,0.2016,0.2008,0.2031,0.2073,0.2111,0.2121,0.213,0.2154,0.2164,0.2037,0.2037,0.2037,0,0.1569,0.1598,0.1622,0.165,0.1676,0.1708,0.1737,0.1768,0.1816,0.1845,0.1852,0.1931,0.1946,0.2003,0.2031,0.2035,0.2052,0.2031,0.2121,0.213,0.2138,0.216,0.2171,0.2041,0.204,0.204,0.204,0,0.1592,0.1629,0.1648,0.1691,0.1722,0.1757,0.1796,0.184,0.1881,0.1909,0.1985,0.2011,0.2056,0.2076,0.2076,0.2149,0.2141,0.2126,0.2091,0.2155,0.2174,0.2184,0.2046,0.2045,0.2044,0.2043,0,0,0.1576,0.1649,0.1658,0.1687,0.1749,0.1772,0.1835,0.1891,0.1938,0.1996,0.2056,0.2115,0.2138,0.2154,0.2169,0.2206,0.2283,0.2199,0.2199,0.2216,0.2368,0.2236,0.2233,0.2291,0.2293,0.2295,0.2361,0,0.1588,0.1642,0.1678,0.1736,0.1766,0.182,0.1873,0.1934,0.1988,0.2055,0.2105,0.2168,0.2165,0.2203,0.2241,0.2275,0.2312,0.2266,0.2309,0.2309,0.2179,0.2241,0.2301,0.2368,0.237,0.2372,0.2373,0,0.1587,0.1627,0.1684,0.1762,0.1782,0.1827,0.1916,0.1968,0.2064,0.211,0.2181,0.2219,0.2298,0.2281,0.2368,0.2345,0.2364,0.238,0.2383,0.2238,0.2195,0.229,0.2391,0.239,0.2388,0.2387,0.2386,0,0.1546,0.1626,0.1674,0.1701,0.1793,0.1841,0.1899,0.1991,0.2043,0.2155,0.2204,0.229,0.2349,0.2392,0.2435,0.2416,0.2517,0.2487,0.2383,0.2374,0.2443,0.2432,0.2542,0.2542,0.2542,0.2542,0.2542,0,0.1523,0.1564,0.1666,0.169,0.1754,0.1832,0.1907,0.1978,0.2082,0.2138,0.2235,0.2284,0.2384,0.2448,0.2466,0.2457,0.2545,0.2396,0.2385,0.2471,0.2463,0.245,0.2439,0.2544,0.2544,0.2543,0.2543,0,0.1461,0.153,0.1588,0.1698,0.1735,0.1784,0.1902,0.1952,0.2065,0.2143,0.2186,0.2311,0.2391,0.2467,0.2546,0.2484,0.2495,0.247,0.2569,0.2561,0.2318,0.231,0.2347,0.2343,0.234,0.2337,0.2334,0,0.143,0.1458,0.1575,0.1612,0.1667,0.1751,0.1805,0.1929,0.1976,0.2132,0.2157,0.2287,0.2353,0.2357,0.2447,0.2479,0.2453,0.2436,0.2358,0.2314,0.23,0.2297,0.2293,0.2329,0.2328,0.2327,0.2326,0,0.1369,0.1426,0.1475,0.1551,0.1617,0.167,0.1758,0.1777,0.1912,0.2032,0.2075,0.2121,0.2209,0.2267,0.2319,0.2332,0.2431,0.2399,0.2405,0.2332,0.2293,0.2281,0.2282,0.2314,0.2316,0.2317,0.2318,0,0.1326,0.1344,0.142,0.147,0.1548,0.157,0.1624,0.1679,0.1739,0.1904,0.1914,0.2054,0.2178,0.2192,0.2236,0.2248,0.2207,0.2123,0.2142,0.2157,0.2065,0.1986,0.1908,0,0,0,0,0,0.1274,0.1285,0.1332,0.138,0.1451,0.1491,0.1585,0.1641,0.1763,0.1747,0.1823,0.1892,0.1955,0.2031,0.2007,0.2165,0.2225,0.2127,0.2139,0.2248,0.2261,0.2172,0,0,0,0,0,0,0.1239,0.1284,0.1297,0.1292,0.1307,0.1367,0.1418,0.1502,0.1496,0.163,0.1678,0.1781,0.1879,0.1954,0.1972,0.1997,0.1966,0.2219,0.2214,0.224,0.2252,0.2263,0.2177,0,0,0,0,0]},{"header":{"parameterUnit":"m.s-1","parameterCategory":2,"la1":30.2991,"la2":30.254,"lo1":-89.0895,"lo2":-89.0444,"dy":0.0017,"dx":0.0017,"nx":28,"ny":28,"refTime":"2026-02-13T09:00:00:Z","depth":"4","parameterNumber":3,"parameterNumberName":"V-component_of_CURRENTS"},"data":[0,0,0,0,0,0,0,0,0,0,0,0,0,0,0,0,0,0,0,0,0,0,0,0,0,0,0,0,0,0,0,0,0,0,0,0,0,0,0,0,0,0,0,0,0,0,0,0,0,0,0,0,0,0,0,0,0,0,-0.0136,-0.0136,0,-0.0184,-0.0185,-0.0185,-0.022,-0.022,-0.022,-0.0221,-0.0299,-0.03,-0.0302,0,0,0,0,0,0,0,0,0,0,0,0,0,-0.0104,-0.0104,-0.0136,-0.0136,-0.0137,-0.0184,-0.0185,-0.0185,-0.022,-0.022,-0.0221,-0.0221,-0.0298,-0.03,-0.0302,0,0,0,0,0,0,0,0,0,0,0,0,0,-0.0132,-0.0104,-0.0136,-0.0159,-0.0162,-0.0184,-0.0185,-0.0186,-0.022,-0.022,-0.0221,-0.0221,-0.0297,-0.03,-0.0303,-0.0313,0,0,-0.0311,-0.0312,0,0,0,0,0,0,0,0,-0.013,-0.0133,-0.0155,-0.0158,-0.0161,-0.0196,-0.0202,-0.0229,-0.022,-0.0198,-0.0221,-0.0221,-0.0266,-0.0272,-0.028,-0.0316,-0.032,-0.0311,-0.0313,-0.0314,-0.0315,0,0,0,0,0,0,0,-0.0128,-0.0131,-0.0155,-0.0156,-0.0159,-0.0178,-0.0182,-0.0207,-0.0231,-0.02,-0.0203,-0.0207,-0.0268,-0.0277,-0.0282,-0.0321,-0.0311,-0.0314,-0.0315,-0.0317,-0.0372,-0.0372,0,0,0,0,0,0,-0.0119,-0.0129,-0.0154,-0.0157,-0.0145,-0.0178,-0.0183,-0.0185,-0.023,-0.0237,-0.0207,-0.0209,-0.0273,-0.0279,-0.0285,-0.0294,-0.0314,-0.0317,-0.0318,-0.0372,-0.0372,-0.0372,0,0,0,0,0,0,-0.0118,-0.0121,-0.0152,-0.0144,-0.0149,-0.0178,-0.018,-0.0185,-0.0196,-0.0234,-0.0242,-0.0212,-0.0273,-0.0281,-0.0303,-0.0298,-0.0318,-0.0321,-0.0372,-0.0372,-0.0372,-0.0315,0,0,0,0,0,0,-0.0117,-0.012,-0.0118,-0.0143,-0.0149,-0.016,-0.018,-0.0186,-0.0198,-0.0201,-0.0241,-0.0249,-0.0274,-0.0299,-0.0306,-0.0302,-0.0323,-0.0373,-0.0372,-0.0372,-0.0317,-0.0313,-0.0309,0,0,0,0,0,-0.0116,-0.0109,-0.0118,-0.0121,-0.0146,-0.016,-0.0164,-0.0187,-0.0198,-0.0199,-0.0225,-0.0248,-0.0302,-0.0301,-0.0309,-0.0306,-0.0373,-0.0372,-0.0372,-0.0319,-0.0314,-0.031,0,0,0,0,0,0,-0.0093,-0.0113,-0.0123,-0.0122,-0.0138,-0.0165,-0.0167,-0.0184,-0.0205,-0.0208,-0.0245,-0.0254,-0.0272,-0.0297,-0.0295,-0.0321,-0.0341,-0.0343,-0.0298,-0.0294,-0.029,-0.0273,-0.0325,0,0,0,0,0,-0.0086,-0.0087,-0.011,-0.0109,-0.0115,-0.0141,-0.015,-0.0164,-0.0186,-0.0196,-0.0224,-0.0253,-0.0277,-0.0291,-0.0316,-0.033,-0.0353,-0.0334,-0.033,-0.0326,-0.0318,-0.0347,-0.0344,-0.037,-0.037,-0.037,0,0,-0.0077,-0.0088,-0.0088,-0.0104,-0.0118,-0.0118,-0.0147,-0.0155,-0.0155,-0.0201,-0.021,-0.0241,-0.0278,-0.0292,-0.0302,-0.0312,-0.0331,-0.0326,-0.0322,-0.0316,-0.0346,-0.0343,-0.0341,-0.037,-0.037,-0.037,0,0,-0.0055,-0.0067,-0.0061,-0.007,-0.0086,-0.0101,-0.0101,-0.0126,-0.0137,-0.0151,-0.0182,-0.0206,-0.0244,-0.0266,-0.0283,-0.0273,-0.0309,-0.0285,-0.0251,-0.0278,-0.0276,-0.0274,-0.0297,-0.0298,-0.0282,-0.0282,-0.0282,0,-0.0043,-0.0038,-0.006,-0.0055,-0.0057,-0.0089,-0.0079,-0.0094,-0.0122,-0.0127,-0.0146,-0.0196,-0.0229,-0.0245,-0.0242,-0.0263,-0.0284,-0.0264,-0.0272,-0.0271,-0.027,-0.0294,-0.0296,-0.0279,-0.028,-0.028,-0.028,0,-0.0018,-0.0013,-0.0008,-0.0011,-0.0015,-0.0012,-0.0033,-0.0038,-0.0057,-0.0076,-0.0097,-0.0142,-0.017,-0.0188,-0.0213,-0.0223,-0.0242,-0.0263,-0.028,-0.0264,-0.029,-0.0293,-0.0275,-0.0276,-0.0277,-0.0278,0,0,0.0009,0.001,0.0012,0.0022,0.0009,0.0012,0.0015,0.0008,0.0015,-0.0023,-0.0021,-0.0069,-0.0096,-0.0117,-0.0156,-0.0182,-0.0198,-0.0216,-0.0219,-0.0231,-0.0256,-0.0254,-0.0258,-0.0222,-0.0222,-0.0222,-0.0275,0,0.0036,0.0061,0.0052,0.0079,0.009,0.0071,0.008,0.007,0.0052,0.0045,-0.0005,-0.002,-0.0069,-0.008,-0.0114,-0.0176,-0.0203,-0.0182,-0.0276,-0.0278,-0.0274,-0.026,-0.0223,-0.0277,-0.0278,-0.0278,-0.0279,0,0.0064,0.0078,0.0108,0.0129,0.0134,0.0145,0.0158,0.0162,0.0142,0.0125,0.0095,0.0057,0.0016,-0.0028,-0.0122,-0.0106,-0.0173,-0.0225,-0.0229,-0.0247,-0.0282,-0.03,-0.0284,-0.0284,-0.0284,-0.0283,-0.0283,0,0.0094,0.0119,0.0147,0.0152,0.0168,0.0183,0.0192,0.0186,0.0203,0.0178,0.0182,0.0119,0.0096,0.0005,-0.01,-0.0111,-0.0204,-0.0236,-0.0298,-0.0299,-0.031,-0.0312,-0.03,-0.03,-0.03,-0.03,-0.03,0,0.0124,0.0149,0.0165,0.0181,0.0224,0.0221,0.026,0.0258,0.0267,0.0291,0.0227,0.0229,0.0104,0.0037,-0.0073,-0.0186,-0.0186,-0.0285,-0.031,-0.0285,-0.0283,-0.0312,-0.0313,-0.0302,-0.0302,-0.0301,-0.0301,0,0.0148,0.0158,0.0195,0.0223,0.0239,0.0268,0.0313,0.0342,0.0338,0.0369,0.0368,0.0316,0.0227,0.01,-0.0043,-0.0139,-0.0256,-0.03,-0.0251,-0.0274,-0.0341,-0.0339,-0.0372,-0.0373,-0.0373,-0.0373,-0.0373,0,0.016,0.0181,0.0227,0.0257,0.0271,0.0315,0.0351,0.0373,0.0405,0.0423,0.0441,0.0383,0.0324,0.0139,-0.0014,-0.0215,-0.0253,-0.0317,-0.0342,-0.0327,-0.0348,-0.0344,-0.0341,-0.0374,-0.0374,-0.0374,-0.0374,0,0.0184,0.0198,0.0229,0.0289,0.0334,0.0388,0.0438,0.0473,0.0501,0.0506,0.0513,0.0421,0.0322,0.016,0.0009,-0.0143,-0.0277,-0.0321,-0.0322,-0.0346,-0.0329,-0.0349,-0.0345,-0.0375,-0.0375,-0.0375,-0.0374,0,0.0199,0.0222,0.0262,0.0316,0.0379,0.0439,0.0466,0.051,0.0547,0.0568,0.0571,0.0462,0.0404,0.0197,0.0055,-0.0088,-0.014,-0.0203,-0.0212,-0.0213,-0.016,-0.0114,-0.0106,0,0,0,0,0,0.0209,0.0235,0.0287,0.0346,0.0411,0.0445,0.0517,0.0539,0.0572,0.0592,0.0586,0.0496,0.0304,0.0223,0.0082,0.0019,-0.0186,-0.0156,-0.0268,-0.038,-0.0379,-0.0345,0,0,0,0,0,0,0.0215,0.0259,0.0283,0.036,0.0404,0.0477,0.0523,0.055,0.0559,0.0577,0.0486,0.0445,0.0261,0.0388,0.0076,0.0032,-0.0063,-0.0243,-0.0247,-0.0381,-0.038,-0.0379,-0.0343,0,0,0,0,0]}]]